Location: Blöcktach
(47.8870°N, 10.5142°E)
Time: 01:34:34
(UTC+00:00)

Daily predictions for brighter satellites

Satellite Brightness Start Highest point End
(mag) Time Altitude Azimuth Time Altitude Azimuth Time Altitude Azimuth
Cosmos 2082 4.5 00:03:44 25° SSE 00:06:20 39° ESE 00:11:32 10° NE
Cosmos 292 Rocket 4.3 00:04:41 30° SSE 00:06:34 46° ESE 00:11:10 10° NNE
Cosmos 2227 Rocket 2.2 00:05:20 29° SSW 00:08:23 81° WNW 00:14:06 10° NNE
Cosmos 1892 3.6 00:09:05 29° WSW 00:09:57 33° WNW 00:13:11 10° N
Cosmos 990 Rocket 3.9 00:08:24 33° SSW 00:10:45 85° ESE 00:15:55 10° NNE
IDEFIX/ARIANE 42P 4.2 00:06:50 10° NE 00:11:07 25° E 00:14:28 14° SE
Cosmos 332 Rocket 4.2 00:09:47 28° SW 00:12:13 58° WNW 00:17:04 10° NNE
SL-12 R/B(2) 4.3 00:09:27 24° SSW 00:14:52 78° SE 00:24:39 10° NE
CENTAUR R/B 2.4 00:12:18 29° SSW 00:15:29 77° SE 00:22:33 10° NE
CZ-2C R/B 4.3 00:11:29 10° ESE 00:16:00 30° ENE 00:20:38 10° N
CZ-2D R/B 4.0 00:14:34 10° NE 00:18:34 21° E 00:22:30 10° SE
GEOS 3 Rocket 3.7 00:13:32 10° NE 00:18:42 72° NW 00:22:02 22° SW
Meteor 1-21 Rocket 4.2 00:18:17 29° S 00:21:23 88° ESE 00:27:07 10° NNE
H-2A R/B 3.4 00:18:13 10° N 00:21:58 30° WNW 00:24:02 20° WSW
Cosmos 1975 Rocket 3.2 00:21:39 32° SSE 00:23:32 65° E 00:27:55 10° NNE
Cosmos 1538 Rocket 4.0 00:19:24 10° NNW 00:24:33 64° WSW 00:27:12 29° S
SL-4 R/B 3.2 00:23:36 10° W 00:26:25 27° WSW 00:26:25 27° WSW
Cosmos 2297 Rocket 3.4 00:24:23 13° WSW 00:28:53 35° NW 00:34:04 10° NNE
Cosmos 2219 3.1 00:27:36 28° SSW 00:30:40 87° ESE 00:36:19 10° NNE
Cosmos 2341 Rocket 4.2 00:28:16 23° S 00:32:17 66° E 00:38:26 10° NNE
Cosmos 2084 Rocket 4.3 00:29:51 18° WSW 00:32:43 44° NW 00:36:41 10° NNE
Cosmos 1455 Rocket 3.2 00:31:16 10° NNW 00:35:40 63° W 00:37:36 32° SSW
Aureole 1 Rocket 2.7 00:38:34 38° SSW 00:39:55 83° WNW 00:44:18 10° NNE
Cosmos 1825 4.1 00:42:47 13° W 00:44:01 16° WNW 00:46:10 10° NNW
Cosmos 372 Rocket 4.1 00:42:35 26° S 00:45:30 69° ESE 00:50:43 10° NNE
ADEOS II 3.8 00:42:00 10° NE 00:46:14 24° E 00:50:26 10° SSE
Meteor 2-1 Rocket 4.3 00:43:12 10° NNW 00:49:09 82° W 00:53:19 20° S
Cosmos 1025 Rocket 4.1 00:50:34 22° WSW 00:52:36 33° WNW 00:56:33 10° N
Cosmos 923 Rocket 3.9 00:47:22 10° NNW 00:52:40 82° WSW 00:56:51 16° SSE
BREEZE-M DEB (TANK) 2.4 00:54:41 10° WNW 00:58:54 35° SW 00:58:59 35° SW
Resurs 1-4 Rocket 2.8 00:54:03 10° NNE 00:59:09 47° E 01:03:09 16° SSE
NOSS 3-2 (A) 3.2 00:56:57 22° SW 01:00:27 83° NW 01:06:45 10° NE
Cosmos 1937 Rocket 3.5 00:58:06 24° SSW 01:01:21 80° ESE 01:06:37 10° NNE
Cosmos 1606 2.4 00:58:45 10° NNW 01:02:20 74° W 01:04:04 28° S
Cosmos 2263 Rocket 2.2 00:58:49 23° SW 01:02:23 77° WNW 01:07:59 10° NNE
CZ-4C R/B 4.0 01:00:01 10° W 01:04:20 27° NNW 01:09:35 10° NNE
Cosmos 1898 Rocket 3.5 01:01:19 24° SSW 01:04:30 73° WNW 01:09:41 10° NNE
NOSS 3-2 (C) 3.5 01:03:08 22° S 01:06:22 55° ESE 01:12:21 10° NE
Cosmos 1821 Rocket 4.5 01:01:27 14° SSE 01:06:36 56° E 01:12:36 10° NNE
Orbus 7S? 2.9 01:04:55 10° NW 01:07:40 84° NE 01:11:53 10° SE
MOZ.5/SAFIR/RUBIN 5/SL-8 3.9 01:05:47 23° S 01:08:37 58° W 01:13:12 10° NNW
Cosmos 2218 Rocket 4.0 01:04:28 20° S 01:08:59 87° W 01:15:12 10° N
USA 267 4.5 01:04:48 10° ENE 01:10:16 28° SE 01:14:40 14° S
Helios 1A Rocket 3.9 01:12:04 23° SW 01:13:15 28° W 01:16:34 10° NW
BlueWalker 3 3.5 01:11:19 10° WNW 01:14:47 35° N 01:18:15 10° ENE
Cosmos 2366 rocket 4.0 01:11:40 20° SSW 01:16:15 76° W 01:22:31 10° N
Iridium 921 4.3 01:14:40 26° S 01:16:31 87° W 01:19:59 10° N
Cosmos 1461 2.7 01:14:31 25° SSW 01:16:42 82° SE 01:20:36 10° NE
Cosmos 1844 Rocket 3.8 01:17:43 12° SSE 01:22:21 35° ESE 01:27:23 10° NE
BREEZE-M DEB (TANK) 2.5 01:25:57 26° S 01:25:57 26° S 01:28:28 10° SSE
MSX 3.8 01:22:56 10° NNE 01:28:43 90° WNW 01:33:23 16° SSW
Cosmos 1680 Rocket 3.8 01:29:53 10° NNW 01:34:54 49° WSW 01:39:26 12° S
ALOS 3.6 01:30:58 10° NNE 01:35:12 35° E 01:39:26 10° SSE
Cosmos 1818 3.9 01:30:59 10° NW 01:36:12 46° WSW 01:41:23 10° S
Cosmos 2112 Rocket 4.1 01:32:00 10° NNW 01:37:04 55° WSW 01:42:06 10° S
SL-16 R/B 2.9 01:31:59 10° SSE 01:38:11 69° ENE 01:44:23 10° NNW
SL-16 R/B 3.5 01:34:15 10° NW 01:38:27 22° W 01:41:09 16° SW
Cosmos 1603 3.7 01:38:00 10° NNW 01:43:49 87° WSW 01:49:32 10° SSE
USA 234 4.1 01:40:46 10° E 01:47:07 56° NNE 01:53:28 10° NW
COSMOS 2441 4.3 01:43:18 10° NNE 01:48:08 87° WNW 01:52:26 13° SSW
Meteor 1-28 Rocket 3.2 01:44:58 10° SSE 01:48:29 76° ENE 01:52:03 10° N
IDEFIX/ARIANE 42P 3.0 01:45:49 10° N 01:50:54 51° WNW 01:55:13 14° SW
Cosmos 2228 3.8 01:48:46 10° NNW 01:52:42 35° W 01:55:50 15° SSW
Cosmos 2227 Rocket 4.2 01:49:24 10° W 01:53:22 19° NW 01:57:21 10° N
Cosmos 1943 3.5 01:48:31 10° NW 01:53:54 48° WSW 01:59:14 10° S
CZ-2C R/B 3.2 01:50:35 10° N 01:56:04 74° WNW 02:00:50 12° SSW
CZ-2C R/B 3.0 01:51:20 12° S 01:56:04 45° W 02:01:14 10° NNW
Cosmos 1437 Rocket 2.7 01:53:28 15° SSW 01:56:36 70° WNW 02:00:23 10° N
CZ-2D R/B 2.3 01:53:43 10° N 01:59:00 61° WNW 02:03:47 12° SSW
FENGYUN 3A 3.7 01:55:59 10° NNE 02:01:23 85° WNW 02:06:46 10° SSW
Cosmos 1727 Rocket 4.3 01:58:34 10° NNW 02:04:43 54° W 02:10:50 10° SSW
CENTAUR R/B 4.0 02:01:13 10° W 02:06:53 35° NNW 02:13:45 10° NE
Cosmos 2239 Rocket 4.5 02:02:40 10° SSW 02:08:48 76° W 02:14:59 10° N
Envisat 4.2 02:05:38 10° NNE 02:10:24 40° E 02:15:09 10° SSE
Cosmos 1048 Rocket 4.0 02:06:43 10° NNW 02:11:57 81° WSW 02:17:13 10° SSE
USA 238 DEB 3.6 02:06:34 12° SW 02:12:27 83° SE 02:19:16 10° NE
USA 238 3.6 02:06:36 12° SW 02:12:30 82° SE 02:19:19 10° NE
ASTEX 1 3.5 02:15:41 10° S 02:20:28 58° W 02:25:18 10° NNW
Cosmos 1606 Rocket 3.9 02:18:30 10° NNW 02:22:46 47° W 02:27:00 10° SSW
Cosmos 1125 Rocket 4.0 02:18:04 10° S 02:23:14 59° ESE 02:28:27 10° NNE
Cosmos 1867 3.7 02:18:38 10° SW 02:24:06 83° NW 02:29:38 10° NE
CZ-2C R/B 3.8 02:20:31 10° NNE 02:24:38 32° E 02:28:45 10° SSE
IRAS Rocket 4.4 02:19:32 10° NNE 02:25:03 77° ESE 02:30:33 10° SSW
Cosmos 921 Rocket 3.4 02:21:16 10° NNW 02:25:16 42° WSW 02:29:13 10° S
ADEOS II 2.5 02:21:03 10° N 02:26:08 52° WNW 02:31:12 10° SW
Alouette 2 Rocket 3.6 02:23:17 10° S 02:28:00 81° ESE 02:31:41 10° NNE
BREEZE-M DEB (TANK) 4.2 02:22:02 10° SSW 02:28:11 25° SSE 02:30:57 10° E
Cosmos 494 Rocket 4.4 02:23:50 10° NW 02:28:46 43° WSW 02:33:42 10° S
Cosmos 1844 3.8 02:28:22 10° SSW 02:34:08 79° WNW 02:39:59 10° NNE
Cosmos 1238 Rocket 2.5 02:34:28 10° N 02:38:00 78° E 02:41:06 10° SSE
USA 81 4.1 02:33:05 10° N 02:38:21 71° W 02:43:35 10° S
Cosmos 1726 Rocket 4.0 02:34:09 10° NNW 02:38:22 43° W 02:42:32 10° SSW
Resurs 1-4 Rocket 3.3 02:34:15 10° N 02:38:43 29° WNW 02:43:10 10° WSW
Cosmos-2242 4.1 02:37:08 10° N 02:41:20 48° ENE 02:45:29 10° SSE
